• In Netherlands
  • List of Countries
  • For 7 days
  • Water Temperature
  • Satellite Maps
  • Weather Map
  • Weather Widgets
  • user-avatar
    Login

    Hourly Weather Pamporovo

    Today, 26 May, Friday

    Time Temperature Precipitation Wind Pressure Humidity
    00:00 +4°C° 0.1 mm 1 mps 622 mmHg 96%
    01:00 +4°C° 0.1 mm 1 mps 622 mmHg 97%
    02:00 +4°C° 0.1 mm 1 mps 622 mmHg 97%
    03:00 +3°C° 0.1 mm 1 mps 621 mmHg 97%
    04:00 +3°C° 0.1 mm 1 mps 621 mmHg 97%
    05:00 +3°C° 0.1 mm 1 mps 621 mmHg 97%
    06:00 +5°C° 0 mm 1 mps 622 mmHg 93%
    07:00 +7°C° 0 mm 1 mps 623 mmHg 90%
    08:00 +8°C° 0 mm 1 mps 624 mmHg 86%
    09:00 +8°C° 0.2 mm 2 mps 624 mmHg 82%
    10:00 +9°C° 0.2 mm 2 mps 625 mmHg 78%
    11:00 +10°C° 0.2 mm 2 mps 625 mmHg 74%
    12:00 +12°C° 1.3 mm 2 mps 625 mmHg 75%
    13:00 +12°C° 1.3 mm 2 mps 625 mmHg 76%
    14:00 +12°C° 1.3 mm 2 mps 625 mmHg 77%
    15:00 +12°C° 2 mm 1 mps 624 mmHg 80%
    16:00 +11°C° 2 mm 1 mps 624 mmHg 83%
    17:00 +11°C° 2 mm 1 mps 624 mmHg 85%
    18:00 +9°C° 0.9 mm 1 mps 623 mmHg 88%
    19:00 +8°C° 0.9 mm 1 mps 623 mmHg 91%
    20:00 +7°C° 0.9 mm 1 mps 622 mmHg 94%
    21:00 +6°C° 0.5 mm 1 mps 623 mmHg 95%
    22:00 +6°C° 0.5 mm 1 mps 623 mmHg 95%
    23:00 +6°C° 0.5 mm 1 mps 623 mmHg 95%

    Tomorrow, 27 May, Saturday

    Time Temperature Precipitation Wind Pressure Humidity
    00:00 +6°C° 0.4 mm 1 mps 623 mmHg 95%
    01:00 +6°C° 0.4 mm 1 mps 623 mmHg 96%
    02:00 +6°C° 0.4 mm 1 mps 623 mmHg 96%
    03:00 +5°C° 0.2 mm 1 mps 623 mmHg 96%
    04:00 +5°C° 0.2 mm 1 mps 623 mmHg 96%
    05:00 +5°C° 0.2 mm 1 mps 623 mmHg 96%
    06:00 +6°C° 0.2 mm 1 mps 623 mmHg 94%
    07:00 +7°C° 0.2 mm 1 mps 624 mmHg 91%
    08:00 +8°C° 0.2 mm 1 mps 625 mmHg 89%
    09:00 +9°C° 0.3 mm 1 mps 625 mmHg 84%
    10:00 +10°C° 0.3 mm 1 mps 626 mmHg 79%
    11:00 +11°C° 0.3 mm 1 mps 626 mmHg 74%
    12:00 +11°C° 1.4 mm 1 mps 626 mmHg 78%
    13:00 +10°C° 1.4 mm 2 mps 626 mmHg 81%
    14:00 +9°C° 1.4 mm 2 mps 626 mmHg 84%
    15:00 +8°C° 2.4 mm 2 mps 625 mmHg 86%
    16:00 +8°C° 2.4 mm 2 mps 625 mmHg 88%
    17:00 +7°C° 2.4 mm 2 mps 625 mmHg 90%
    18:00 +6°C° 1.2 mm 2 mps 625 mmHg 91%
    19:00 +6°C° 1.2 mm 2 mps 625 mmHg 92%
    20:00 +5°C° 1.2 mm 2 mps 625 mmHg 94%
    21:00 +5°C° 1.3 mm 2 mps 625 mmHg 94%
    22:00 +5°C° 1.3 mm 2 mps 626 mmHg 95%
    23:00 +5°C° 1.3 mm 1 mps 626 mmHg 96%

    Day after tomorrow, 28 May, Sunday

    Time Temperature Precipitation Wind Pressure Humidity
    00:00 +4°C° 1.3 mm 2 mps 626 mmHg 96%
    01:00 +4°C° 1.3 mm 2 mps 626 mmHg 96%
    02:00 +4°C° 1.3 mm 2 mps 626 mmHg 96%
    03:00 +4°C° 0.5 mm 2 mps 626 mmHg 96%
    04:00 +4°C° 0.5 mm 2 mps 626 mmHg 96%
    05:00 +4°C° 0.5 mm 2 mps 627 mmHg 96%
    06:00 +4°C° 0.3 mm 2 mps 627 mmHg 94%
    07:00 +5°C° 0.3 mm 2 mps 628 mmHg 92%
    08:00 +5°C° 0.3 mm 2 mps 628 mmHg 90%
    09:00 +7°C° 0.1 mm 2 mps 629 mmHg 82%
    10:00 +8°C° 0.1 mm 3 mps 630 mmHg 74%
    11:00 +10°C° 0.1 mm 3 mps 630 mmHg 66%
    12:00 +11°C° 0.1 mm 3 mps 631 mmHg 62%
    13:00 +12°C° 0.1 mm 3 mps 631 mmHg 58%
    14:00 +12°C° 0.1 mm 4 mps 631 mmHg 55%
    15:00 +12°C° 0.3 mm 3 mps 631 mmHg 58%
    16:00 +12°C° 0.3 mm 3 mps 631 mmHg 62%
    17:00 +11°C° 0.3 mm 3 mps 630 mmHg 65%
    18:00 +9°C° 0.2 mm 3 mps 630 mmHg 74%
    19:00 +7°C° 0.2 mm 2 mps 629 mmHg 83%
    20:00 +5°C° 0.2 mm 1 mps 628 mmHg 92%
    21:00 +5°C° 0.1 mm 1 mps 628 mmHg 93%
    22:00 +4°C° 0.1 mm 1 mps 629 mmHg 93%
    23:00 +4°C° 0.1 mm 1 mps 629 mmHg 94%

    29 May, Monday

    Time Temperature Precipitation Wind Pressure Humidity
    00:00 +3°C° 0 mm 2 mps 629 mmHg 94%
    01:00 +3°C° 0 mm 2 mps 628 mmHg 93%
    02:00 +2°C° 0 mm 2 mps 628 mmHg 93%
    03:00 +2°C° 0 mm 2 mps 628 mmHg 93%
    04:00 +2°C° 0 mm 2 mps 628 mmHg 93%
    05:00 +2°C° 0 mm 2 mps 628 mmHg 93%
    06:00 +3°C° 0 mm 3 mps 629 mmHg 85%
    07:00 +5°C° 0 mm 3 mps 630 mmHg 77%
    08:00 +8°C° 0 mm 3 mps 631 mmHg 69%
    09:00 +9°C° 0 mm 3 mps 631 mmHg 61%
    10:00 +11°C° 0 mm 3 mps 631 mmHg 53%
    11:00 +12°C° 0 mm 4 mps 632 mmHg 45%
    12:00 +13°C° 0 mm 4 mps 632 mmHg 43%
    13:00 +14°C° 0 mm 4 mps 631 mmHg 41%
    14:00 +14°C° 0 mm 4 mps 631 mmHg 40%
    15:00 +14°C° 0 mm 4 mps 631 mmHg 42%
    16:00 +14°C° 0 mm 4 mps 631 mmHg 44%
    17:00 +13°C° 0 mm 4 mps 630 mmHg 46%
    18:00 +10°C° 0 mm 3 mps 629 mmHg 58%
    19:00 +8°C° 0 mm 2 mps 628 mmHg 71%
    20:00 +5°C° 0 mm 2 mps 627 mmHg 83%
    21:00 +4°C° 0 mm 2 mps 627 mmHg 84%
    22:00 +3°C° 0 mm 2 mps 626 mmHg 85%
    23:00 +4°C° 0 mm 1 mps 626 mmHg 86%

    30 May, Tuesday

    Time Temperature Precipitation Wind Pressure Humidity
    00:00 +3°C° 0 mm 1 mps 626 mmHg 86%
    01:00 +3°C° 0 mm 1 mps 625 mmHg 86%
    02:00 +3°C° 0 mm 1 mps 625 mmHg 86%
    03:00 +3°C° 0 mm 1 mps 625 mmHg 86%
    04:00 +2°C° 0 mm 2 mps 625 mmHg 86%
    05:00 +2°C° 0 mm 2 mps 625 mmHg 85%
    06:00 +6°C° 0 mm 1 mps 626 mmHg 74%
    07:00 +9°C° 0 mm 1 mps 627 mmHg 64%
    08:00 +11°C° 0 mm 1 mps 629 mmHg 53%
    09:00 +13°C° 0 mm 1 mps 629 mmHg 48%
    10:00 +15°C° 0 mm 2 mps 630 mmHg 44%
    11:00 +16°C° 0 mm 2 mps 630 mmHg 39%
    12:00 +17°C° 0 mm 2 mps 630 mmHg 38%
    13:00 +17°C° 0 mm 2 mps 630 mmHg 37%
    14:00 +18°C° 0 mm 2 mps 630 mmHg 35%
    15:00 +17°C° 0 mm 2 mps 630 mmHg 39%
    16:00 +17°C° 0 mm 2 mps 629 mmHg 42%
    17:00 +16°C° 0 mm 2 mps 629 mmHg 45%
    18:00 +13°C° 0 mm 2 mps 628 mmHg 57%
    19:00 +9°C° 0 mm 1 mps 626 mmHg 69%
    20:00 +6°C° 0 mm 1 mps 625 mmHg 81%
    21:00 +6°C° 0 mm 1 mps 625 mmHg 83%
    22:00 +5°C° 0 mm 1 mps 625 mmHg 84%
    23:00 +4°C° 0 mm 1 mps 625 mmHg 86%

    31 May, Wednesday

    Time Temperature Precipitation Wind Pressure Humidity
    00:00 +4°C° 0 mm 1 mps 625 mmHg 86%
    01:00 +4°C° 0 mm 1 mps 625 mmHg 86%
    02:00 +4°C° 0 mm 1 mps 624 mmHg 86%
    03:00 +4°C° 0 mm 1 mps 624 mmHg 85%
    04:00 +4°C° 0 mm 1 mps 624 mmHg 85%
    05:00 +4°C° 0 mm 1 mps 624 mmHg 84%
    06:00 +7°C° 0 mm 1 mps 626 mmHg 73%
    07:00 +10°C° 0 mm 1 mps 627 mmHg 62%
    08:00 +14°C° 0 mm 1 mps 629 mmHg 51%
    09:00 +15°C° 0 mm 1 mps 629 mmHg 46%
    10:00 +18°C° 0 mm 1 mps 630 mmHg 41%
    11:00 +20°C° 0 mm 1 mps 630 mmHg 37%
    12:00 +20°C° 0 mm 1 mps 630 mmHg 35%
    13:00 +21°C° 0 mm 1 mps 630 mmHg 33%
    14:00 +21°C° 0 mm 2 mps 630 mmHg 31%
    15:00 +20°C° 0 mm 2 mps 630 mmHg 33%
    16:00 +19°C° 0 mm 2 mps 630 mmHg 35%
    17:00 +19°C° 0 mm 2 mps 629 mmHg 37%
    18:00 +15°C° 0 mm 1 mps 628 mmHg 52%
    19:00 +11°C° 0 mm 1 mps 627 mmHg 67%
    20:00 +8°C° 0 mm 1 mps 625 mmHg 82%
    21:00 +7°C° 0 mm 1 mps 625 mmHg 82%
    22:00 +7°C° 0 mm 1 mps 625 mmHg 83%
    23:00 +7°C° 0 mm 1 mps 625 mmHg 84%
    Show more